Weather History for West Plains, MO

Change the Weather History Date:

Sunday, November 4, 2012

  Actual Average Record
Temperature  
Mean Temperature 47 °F 51 °F  
Max Temperature 61 °F 62 °F 83 °F (1978)
Min Temperature 33 °F 41 °F 9 °F (1991)
Degree Days  
Heating Degree Days 18 14  
Month to date heating degree days 53 53  
Since 1 July heating degree days 421 356  
Cooling Degree Days 0 0  
Month to date cooling degree days 0 0  
Year to date cooling degree days 1739 1352  
Moisture  
Dew Point 32 °F    
Average Humidity 61    
Maximum Humidity 92    
Minimum Humidity 31    
Precipitation  
Precipitation 0.00 in 0.15 in 2.20 in (1994)
Month to date precipitation 0.00 0.54  
Year to date precipitation 28.26 38.54  
Sea Level Pressure  
Sea Level Pressure 30.17 in    
Wind  
Wind Speed 3 mph (ENE)    
Max Wind Speed 8 mph    
Max Gust Speed 12 mph    
Visibility 9 miles    
Events      
T = Trace of Precipitation, MM = Missing Value Source: NWS Daily Summary

Daily Weather History Graph

Daily Weather History Graph

Search for Another Location

Airport:

Trip Planner

Search our weather history database for the weather conditions in past years. The results will help you decide how hot, cold, wet, or windy it might be!

Date:

Astronomy

Nov. 04, 2012 Rise Set
Actual Time 6:35 AM CST 5:06 PM CST
Civil Twilight 6:08 AM CST 5:33 PM CST
Nautical Twilight 5:37 AM CST 6:04 PM CST
Astronomical Twilight 5:06 AM CST 6:34 PM CST
Moon 9:46 PM CST (11/4) 11:17 AM CST (11/4)
Length of Visible Light 11h 25m
Length of Day
10h 31m
Waning Gibbous, 72% of the Moon is Illuminated
Nov 4
Waning Gibbous
Nov 6
Last Quarter
Nov 13
New
Nov 20
First Quarter
Nov 28
Full

Hourly Weather History & Observations

Time (CST) Temp. Windchill Dew Point Humidity Pressure Visibility Wind Dir Wind Speed Gust Speed Precip Events Conditions
12:53 AM 41.0 °F 39.0 °F 35.1 °F 79% 30.18 in 10.0 mi North 3.5 mph - N/A   Clear
1:53 AM 39.9 °F 37.8 °F 35.1 °F 83% 30.17 in 10.0 mi NE 3.5 mph - N/A   Clear
1:53 AM 39.9 °F 36.7 °F 35.1 °F 83% 30.17 in 9.0 mi NNE 4.6 mph - N/A   Clear
2:53 AM 39.0 °F 34.8 °F 35.1 °F 86% 30.17 in 8.0 mi North 5.8 mph - N/A   Clear
3:53 AM 37.9 °F 34.4 °F 34.0 °F 86% 30.19 in 7.0 mi North 4.6 mph - N/A   Clear
4:53 AM 37.0 °F - 33.1 °F 86% 30.20 in 6.0 mi Calm Calm - N/A   Clear
5:53 AM 36.0 °F - 33.1 °F 89% 30.21 in 5.0 mi Calm Calm - N/A   Clear
6:53 AM 35.1 °F 32.2 °F 33.1 °F 92% 30.22 in 3.0 mi North 3.5 mph - N/A   Clear
7:53 AM 41.0 °F 39.0 °F 36.0 °F 82% 30.22 in 7.0 mi NNE 3.5 mph - N/A   Clear
8:53 AM 46.0 °F 43.9 °F 34.0 °F 63% 30.22 in 10.0 mi NE 4.6 mph - N/A   Clear
9:53 AM 50.0 °F - 32.0 °F 50% 30.23 in 10.0 mi ENE 6.9 mph - N/A   Clear
10:53 AM 52.0 °F - 30.0 °F 43% 30.23 in 10.0 mi Calm Calm - N/A   Clear
11:53 AM 55.9 °F - 30.0 °F 37% 30.19 in 10.0 mi Calm Calm - N/A   Clear
12:53 PM 57.0 °F - 28.9 °F 34% 30.17 in 10.0 mi Calm Calm - N/A   Clear
1:53 PM 59.0 °F - 28.0 °F 31% 30.15 in 10.0 mi Calm Calm - N/A   Clear
2:53 PM 59.0 °F - 28.9 °F 32% 30.14 in 10.0 mi Calm Calm - N/A   Clear
3:53 PM 59.0 °F - 28.0 °F 31% 30.13 in 10.0 mi ESE 3.5 mph - N/A   Clear
4:53 PM 55.9 °F - 30.0 °F 37% 30.13 in 10.0 mi SE 3.5 mph - N/A   Clear
5:53 PM 50.0 °F - 30.0 °F 46% 30.14 in 10.0 mi Calm Calm - N/A   Clear
6:53 PM 48.0 °F - 30.9 °F 52% 30.15 in 10.0 mi Calm Calm - N/A   Clear
7:53 PM 46.9 °F - 30.9 °F 54% 30.14 in 10.0 mi SSE 3.5 mph - N/A   Clear
8:53 PM 46.0 °F 42.5 °F 33.1 °F 61% 30.15 in 10.0 mi SSE 6.9 mph - N/A   Clear
9:53 PM 46.9 °F - 33.1 °F 59% 30.15 in 10.0 mi SSE 6.9 mph - N/A   Scattered Clouds
10:53 PM 46.0 °F 44.8 °F 34.0 °F 63% 30.14 in 10.0 mi SSE 3.5 mph - N/A   Partly Cloudy